Weather History for Formosa, Argentina

Change the Weather History Date:

Wednesday, December 5, 2012

  Actual Average Record
Temperature  
Mean Temperature 86 °F -  
Max Temperature 97 °F 91 °F 102 °F (1999)
Min Temperature 75 °F 69 °F 59 °F (2008)
Cooling Degree Days 21    
Growing Degree Days 36 (Base 50)    
Moisture  
Dew Point 75 °F    
Average Humidity 71    
Maximum Humidity 100    
Minimum Humidity 40    
Precipitation  
Precipitation 0.00 in 0.20 in - ()
Sea Level Pressure  
Sea Level Pressure 29.71 in    
Wind  
Wind Speed 7 mph ()    
Max Wind Speed 14 mph    
Max Gust Speed -    
Visibility 7.5 miles    
Events Rain , Thunderstorm    
Averages and records for this station are not official NWS values.
T = Trace of Precipitation, MM = Missing Value Source: Averaged Metar Reports

Daily Weather History Graph

Daily Weather History Graph

Search for Another Location

Airport:

Trip Planner

Search our weather history database for the weather conditions in past years. The results will help you decide how hot, cold, wet, or windy it might be!

Date:

Astronomy

Dec. 05, 2012 Rise Set
Actual Time 5:52 AM ART 7:35 PM ART
Civil Twilight 5:26 AM ART 8:01 PM ART
Nautical Twilight 4:55 AM ART 8:32 PM ART
Astronomical Twilight 4:23 AM ART 9:04 PM ART
Moon No Moon Rise 11:48 AM ART (12/5)
Length of Visible Light 14h 34m
Length of Day
13h 42m
Waning Gibbous, 61% of the Moon is Illuminated
Dec 5
Waning Gibbous
Dec 6
Last Quarter
Dec 13
New
Dec 20
First Quarter
Dec 28
Full

Hourly Weather History & Observations

Time (ART) Temp. Heat Index Dew Point Humidity Pressure Visibility Wind Dir Wind Speed Gust Speed Precip Events Conditions
12:00 AM 77.0 °F - 73.4 °F 89% 29.86 in 6.2 mi SW 5.8 mph - N/A Rain , Thunderstorm Light Thunderstorms and Rain
1:00 AM 75.2 °F - 75.2 °F 100% 29.80 in 6.2 mi SE 5.8 mph - N/A Rain Light Rain
2:00 AM 75.2 °F - 75.2 °F 100% 29.74 in 6.2 mi NE 6.9 mph - N/A Rain Light Rain
3:00 AM 77 °F - 74 °F 86% 29.72 in 12 mi North 5.8 mph - - Rain Light Rain
3:00 AM 77.0 °F - 73.4 °F 89% 29.74 in 6.2 mi North 5.8 mph - N/A   Overcast
4:00 AM 75.2 °F - 73.4 °F 94% 29.77 in 6.2 mi South 2.3 mph - N/A   Scattered Clouds
5:00 AM 75.2 °F - 75.2 °F 100% 29.74 in 6.2 mi South 2.3 mph - N/A   Scattered Clouds
6:00 AM 75.2 °F - 75.2 °F 100% 29.77 in 6.2 mi SE 3.5 mph - N/A   Scattered Clouds
7:00 AM 77.0 °F - 75.2 °F 94% 29.77 in - East 5.8 mph - N/A   Clear
8:00 AM 82.4 °F 89.5 °F 75.2 °F 79% 29.77 in - NE 10.4 mph - N/A   Clear
9:00 AM 86 °F - 76 °F 66% 29.76 in 12 mi NNE 11.5 mph - -   Scattered Clouds
9:00 AM 86.0 °F 96.9 °F 77.0 °F 74% 29.77 in - NNE 11.5 mph - N/A   Clear
12:00 PM 93.2 °F 107.2 °F 77.0 °F 59% 29.74 in 6.2 mi North 11.5 mph - N/A   Scattered Clouds
1:00 PM 95.0 °F 107.4 °F 75.2 °F 53% 29.74 in 6.2 mi NNW 13.8 mph - N/A   Scattered Clouds
2:00 PM 96.8 °F 112.2 °F 77.0 °F 53% 29.71 in 6.2 mi NNW 12.7 mph - N/A   Partly Cloudy
3:00 PM 96 °F - 74 °F 40% 29.67 in 12 mi NNW 13.8 mph - -   Partly Cloudy
3:00 PM 96.8 °F 107.3 °F 73.4 °F 47% 29.68 in 6.2 mi NNW 13.8 mph - N/A   Scattered Clouds
4:00 PM 96.8 °F 109.6 °F 75.2 °F 50% 29.65 in 6.2 mi North 11.5 mph - N/A   Partly Cloudy
5:00 PM 96.8 °F 105.1 °F 71.6 °F 44% 29.62 in 6.2 mi North 10.4 mph - N/A   Partly Cloudy
6:00 PM 96.8 °F 109.6 °F 75.2 °F 50% 29.62 in 6.2 mi North 8.1 mph - N/A   Partly Cloudy
7:00 PM 95.0 °F 107.4 °F 75.2 °F 53% 29.62 in - NNE 8.1 mph - N/A   Clear
8:00 PM 89.6 °F 102.2 °F 77.0 °F 66% 29.62 in - NE 8.1 mph - N/A   Clear
9:00 PM 89 °F - 78 °F 62% 29.63 in 12 mi NE 8.1 mph - -   Clear
9:00 PM 87.8 °F 99.7 °F 77.0 °F 70% 29.65 in - NE 8.1 mph - N/A   Clear
10:00 PM 87.8 °F 99.7 °F 77.0 °F 70% 29.65 in - NE 10.4 mph - N/A   Clear
11:00 PM 87.8 °F 99.7 °F 77.0 °F 70% 29.68 in - NE 9.2 mph - N/A   Clear